Weather History for Asheboro, NC

Change the Weather History Date:

Monday, January 30, 2012

  Actual Average Record
Temperature  
Mean Temperature 44 °F -  
Max Temperature 57 °F 53 °F 80 °F (2002)
Min Temperature 30 °F 33 °F 5 °F (1966)
Degree Days  
Heating Degree Days 22    
Moisture  
Dew Point 19 °F    
Average Humidity 39    
Maximum Humidity 75    
Minimum Humidity 23    
Precipitation  
Precipitation 0.00 in - - ()
Sea Level Pressure  
Sea Level Pressure 30.37 in    
Wind  
Wind Speed 5 mph (SW)    
Max Wind Speed 12 mph    
Max Gust Speed 16 mph    
Visibility 10 miles    
Events      
Averages and records for this station are not official NWS values.
T = Trace of Precipitation, MM = Missing Value Source: NWS Daily Summary

Daily Weather History Graph

Daily Weather History Graph

Search for Another Location

Airport:

Trip Planner

Search our weather history database for the weather conditions in past years. The results will help you decide how hot, cold, wet, or windy it might be!

Date:

Astronomy

Jan. 30, 2012 Rise Set
Actual Time 7:21 AM EST 5:44 PM EST
Civil Twilight 6:54 AM EST 6:11 PM EST
Nautical Twilight 6:23 AM EST 6:42 PM EST
Astronomical Twilight 5:53 AM EST 7:12 PM EST
Moon 11:00 AM EST (1/30) 12:10 AM EST (1/30)
Length of Visible Light 11h 17m
Length of Day
10h 23m
Waxing Crescent, 46% of the Moon is Illuminated
Jan 30
Waxing Crescent
Jan 30
First Quarter
Feb 7
Full
Feb 14
Last Quarter
Feb 21
New

Hourly Weather History & Observations

Time (EST) Temp. Windchill Dew Point Humidity Pressure Visibility Wind Dir Wind Speed Gust Speed Precip Events Conditions
12:15 AM 37.4 °F 32.8 °F 14.0 °F 38% 30.30 in 10.0 mi SW 5.8 mph - N/A   Clear
12:35 AM 37.4 °F 32.1 °F 14.0 °F 38% 30.30 in 10.0 mi SW 6.9 mph - N/A   Clear
12:55 AM 39.2 °F 34.2 °F 14.0 °F 36% 30.30 in 10.0 mi SW 6.9 mph - N/A   Clear
1:15 AM 37.4 °F 32.1 °F 14.0 °F 38% 30.29 in 10.0 mi SSW 6.9 mph - N/A   Clear
1:35 AM 37.4 °F 32.8 °F 14.0 °F 38% 30.30 in 10.0 mi SW 5.8 mph - N/A   Clear
1:55 AM 37.4 °F 32.8 °F 14.0 °F 38% 30.30 in 10.0 mi SW 5.8 mph - N/A   Clear
2:15 AM 37.4 °F 32.8 °F 14.0 °F 38% 30.31 in 10.0 mi SW 5.8 mph - N/A   Clear
2:35 AM 35.6 °F 31.7 °F 14.0 °F 41% 30.31 in 10.0 mi SSW 4.6 mph - N/A   Clear
2:55 AM 35.6 °F - 17.6 °F 48% 30.31 in 10.0 mi Calm Calm - N/A   Clear
3:15 AM 33.8 °F 30.8 °F 17.6 °F 52% 30.31 in 10.0 mi SSW 3.5 mph - N/A   Clear
3:35 AM 33.8 °F 29.6 °F 19.4 °F 56% 30.32 in 10.0 mi SSW 4.6 mph - N/A   Clear
3:55 AM 35.6 °F 31.7 °F 15.8 °F 44% 30.32 in 10.0 mi SSW 4.6 mph - N/A   Clear
4:15 AM 35.6 °F 30.7 °F 17.6 °F 48% 30.32 in 10.0 mi SW 5.8 mph - N/A   Clear
4:35 AM 33.8 °F 29.6 °F 19.4 °F 56% 30.33 in 10.0 mi SSW 4.6 mph - N/A   Clear
4:55 AM 35.6 °F 32.8 °F 15.8 °F 44% 30.34 in 10.0 mi SSW 3.5 mph - N/A   Clear
5:15 AM 33.8 °F 29.6 °F 17.6 °F 52% 30.34 in 10.0 mi SW 4.6 mph - N/A   Clear
5:35 AM 35.6 °F 31.7 °F 17.6 °F 48% 30.34 in 10.0 mi SSW 4.6 mph - N/A   Clear
5:55 AM 33.8 °F - 19.4 °F 56% 30.35 in 10.0 mi Calm Calm - N/A   Clear
6:15 AM 33.8 °F 30.8 °F 17.6 °F 52% 30.36 in 10.0 mi SSW 3.5 mph - N/A   Clear
6:35 AM 32.0 °F - 21.2 °F 64% 30.37 in 10.0 mi Calm Calm - N/A   Clear
6:55 AM 32.0 °F - 21.2 °F 64% 30.38 in 10.0 mi Calm Calm - N/A   Clear
7:15 AM 30.2 °F - 23.0 °F 75% 30.39 in 10.0 mi Calm Calm - N/A   Clear
7:35 AM 32.0 °F - 21.2 °F 64% 30.39 in 10.0 mi Calm Calm - N/A   Clear
7:55 AM 32.0 °F - 23.0 °F 69% 30.40 in 10.0 mi Calm Calm - N/A   Clear
8:15 AM 32.0 °F - 21.2 °F 64% 30.41 in 10.0 mi Calm Calm - N/A   Clear
8:35 AM 33.8 °F - 23.0 °F 65% 30.42 in 10.0 mi Calm Calm - N/A   Clear
8:55 AM 35.6 °F - 23.0 °F 60% 30.42 in 10.0 mi Calm Calm - N/A   Clear
9:15 AM 41.0 °F 37.1 °F 19.4 °F 42% 30.42 in 10.0 mi SSW 5.8 mph - N/A   Clear
9:35 AM 42.8 °F 39.3 °F 19.4 °F 39% 30.43 in 10.0 mi SSW 5.8 mph - N/A   Clear
9:55 AM 42.8 °F 39.3 °F 19.4 °F 39% 30.44 in 10.0 mi SSW 5.8 mph - N/A   Clear
10:35 AM 46.4 °F 45.2 °F 21.2 °F 37% 30.46 in 10.0 mi WSW 3.5 mph - N/A   Clear
10:55 AM 50.0 °F - 21.2 °F 32% 30.47 in 10.0 mi SSW 5.8 mph - N/A   Clear
11:15 AM 50.0 °F - 21.2 °F 32% 30.46 in 10.0 mi SW 5.8 mph - N/A   Clear
11:35 AM 51.8 °F - 21.2 °F 30% 30.45 in 10.0 mi West 6.9 mph - N/A   Clear
11:55 AM 51.8 °F - 19.4 °F 28% 30.43 in 10.0 mi SW 10.4 mph 16.1 mph N/A   Clear
12:15 PM 53.6 °F - 19.4 °F 26% 30.43 in 10.0 mi SW 8.1 mph - N/A   Clear
12:35 PM 53.6 °F - 17.6 °F 24% 30.41 in 10.0 mi West 8.1 mph - N/A   Clear
12:55 PM 53.6 °F - 19.4 °F 26% 30.40 in 10.0 mi West 8.1 mph - N/A   Clear
1:15 PM 53.6 °F - 19.4 °F 26% 30.38 in 10.0 mi SSW 5.8 mph - N/A   Clear
1:55 PM 55.4 °F - 19.4 °F 25% 30.37 in 10.0 mi West 5.8 mph - N/A   Clear
2:15 PM 55.4 °F - 19.4 °F 25% 30.36 in 10.0 mi WSW 6.9 mph - N/A   Clear
2:35 PM 55.4 °F - 19.4 °F 25% 30.37 in 10.0 mi West 6.9 mph - N/A   Clear
2:55 PM 55.4 °F - 19.4 °F 25% 30.36 in 10.0 mi WSW 4.6 mph - N/A   Clear
3:15 PM 57.2 °F - 19.4 °F 23% 30.36 in 10.0 mi SW 9.2 mph - N/A   Clear
3:35 PM 57.2 °F - 19.4 °F 23% 30.36 in 10.0 mi SW 10.4 mph - N/A   Clear
3:55 PM 57.2 °F - 19.4 °F 23% 30.36 in 10.0 mi WSW 6.9 mph - N/A   Clear
4:15 PM 57.2 °F - 19.4 °F 23% 30.36 in 10.0 mi SSW 5.8 mph - N/A   Clear
4:35 PM 57.2 °F - 19.4 °F 23% 30.36 in 10.0 mi SW 6.9 mph - N/A   Clear
4:55 PM 57.2 °F - 19.4 °F 23% 30.36 in 10.0 mi SSW 10.4 mph - N/A   Clear
5:15 PM 55.4 °F - 19.4 °F 25% 30.36 in 10.0 mi SSW 11.5 mph - N/A   Clear
5:35 PM 55.4 °F - 19.4 °F 25% 30.36 in 10.0 mi SSW 6.9 mph - N/A   Clear
5:55 PM 53.6 °F - 21.2 °F 28% 30.36 in 10.0 mi Calm Calm - N/A   Clear
6:15 PM 50.0 °F - 24.8 °F 37% 30.36 in 10.0 mi Calm Calm - N/A   Clear
6:35 PM 48.2 °F - 24.8 °F 40% 30.37 in 10.0 mi Calm Calm - N/A   Clear
6:55 PM 48.2 °F - 21.2 °F 34% 30.37 in 10.0 mi Calm Calm - N/A   Clear
7:15 PM 46.4 °F - 24.8 °F 43% 30.38 in 10.0 mi Calm Calm - N/A   Clear
7:55 PM 46.4 °F - 23.0 °F 40% 30.38 in 10.0 mi Calm Calm - N/A   Clear
8:15 PM 48.2 °F - 21.2 °F 34% 30.38 in 10.0 mi SSW 5.8 mph - N/A   Clear
8:35 PM 50.0 °F - 21.2 °F 32% 30.38 in 10.0 mi South 3.5 mph - N/A   Clear
8:55 PM 50.0 °F - 21.2 °F 32% 30.37 in 10.0 mi South 3.5 mph - N/A   Clear
9:15 PM 48.2 °F - 21.2 °F 34% 30.38 in 10.0 mi Calm Calm - N/A   Clear
9:35 PM 46.4 °F 44.3 °F 21.2 °F 37% 30.38 in 10.0 mi South 4.6 mph - N/A   Clear
9:55 PM 46.4 °F 45.2 °F 21.2 °F 37% 30.38 in 10.0 mi South 3.5 mph - N/A   Clear
10:15 PM 46.4 °F - 21.2 °F 37% 30.39 in 10.0 mi Calm Calm - N/A   Clear
10:35 PM 46.4 °F - 23.0 °F 40% 30.39 in 10.0 mi Calm Calm - N/A   Clear
10:55 PM 46.4 °F - 23.0 °F 40% 30.39 in 10.0 mi Calm Calm - N/A   Clear
11:15 PM 44.6 °F - 23.0 °F 43% 30.39 in 10.0 mi Calm Calm - N/A   Clear
11:35 PM 44.6 °F 40.7 °F 21.2 °F 39% 30.39 in 10.0 mi SSW 6.9 mph - N/A   Clear
11:55 PM 46.4 °F 42.9 °F 21.2 °F 37% 30.39 in 10.0 mi SSW 6.9 mph - N/A   Clear